Radiation Dose at Monitoring Post of Fukushima Daini Nuclear Power Station
Date,Time,MP-1(microSv/h),MP-2(microSv/h),MP-3(microSv/h),MP-4(microSv/h),MP-5(microSv/h),MP-6(microSv/h),MP-7(microSv/h),Wind Direction,Wind Velocity(m/s),Rain
2017/12/31,00:00,0.341,0.206,0.347,0.323,0.306,0.171,0.102,-,CALM,No
2017/12/31,00:10,0.342,0.207,0.345,0.324,0.306,0.171,0.101,-,CALM,No
2017/12/31,00:20,0.342,0.207,0.346,0.324,0.305,0.171,0.101,-,CALM,No
2017/12/31,00:30,0.342,0.206,0.346,0.324,0.305,0.171,0.101,-,CALM,No
2017/12/31,00:40,0.343,0.206,0.347,0.324,0.304,0.171,0.102,west-southwest,0.6,No
2017/12/31,00:50,0.342,0.206,0.349,0.325,0.307,0.171,0.102,-,CALM,No
2017/12/31,01:00,0.342,0.207,0.346,0.324,0.306,0.171,0.102,-,CALM,No
2017/12/31,01:10,0.342,0.206,0.347,0.325,0.306,0.170,0.102,-,CALM,No
2017/12/31,01:20,0.342,0.208,0.345,0.324,0.304,0.170,0.102,-,CALM,No
2017/12/31,01:30,0.341,0.206,0.346,0.324,0.305,0.170,0.102,-,CALM,No
2017/12/31,01:40,0.342,0.207,0.348,0.324,0.306,0.171,0.102,-,CALM,No
2017/12/31,01:50,0.343,0.206,0.346,0.323,0.307,0.170,0.102,north,1.2,No
2017/12/31,02:00,0.342,0.207,0.347,0.325,0.305,0.169,0.102,north-northwest,1.5,No
2017/12/31,02:10,0.342,0.207,0.346,0.325,0.304,0.171,0.102,north-northwest,1.8,No
2017/12/31,02:20,0.342,0.207,0.347,0.324,0.305,0.171,0.103,north-northwest,1.9,No
2017/12/31,02:30,0.341,0.207,0.346,0.323,0.305,0.170,0.102,north-northwest,2.5,No
2017/12/31,02:40,0.341,0.207,0.345,0.323,0.305,0.170,0.102,north,3.2,No
2017/12/31,02:50,0.341,0.207,0.344,0.324,0.307,0.171,0.102,north,3.7,No
2017/12/31,03:00,0.341,0.207,0.345,0.324,0.305,0.171,0.102,north-northwest,4.5,No
2017/12/31,03:10,0.342,0.206,0.347,0.324,0.305,0.171,0.102,north,4.1,No
2017/12/31,03:20,0.341,0.207,0.345,0.324,0.304,0.170,0.102,north,4.1,No
2017/12/31,03:30,0.341,0.206,0.345,0.323,0.306,0.170,0.102,north,3.7,No
2017/12/31,03:40,0.340,0.205,0.347,0.323,0.306,0.171,0.102,north,3.3,No
2017/12/31,03:50,0.342,0.206,0.347,0.323,0.305,0.171,0.103,north,4.2,No
2017/12/31,04:00,0.341,0.206,0.346,0.324,0.304,0.170,0.102,north,3.5,No
2017/12/31,04:10,0.341,0.207,0.346,0.325,0.305,0.171,0.102,north,3.1,No
2017/12/31,04:20,0.342,0.205,0.346,0.324,0.306,0.171,0.102,north,3.7,No
2017/12/31,04:30,0.342,0.207,0.345,0.324,0.304,0.171,0.102,north,3.3,No
2017/12/31,04:40,0.341,0.206,0.346,0.324,0.307,0.170,0.102,north,3.6,No
2017/12/31,04:50,0.341,0.206,0.346,0.323,0.305,0.170,0.102,north,2.3,No
2017/12/31,05:00,0.341,0.206,0.347,0.324,0.304,0.171,0.103,north-northwest,2.4,No
2017/12/31,05:10,0.341,0.207,0.347,0.325,0.306,0.170,0.101,north,2.0,No
2017/12/31,05:20,0.342,0.207,0.346,0.325,0.305,0.170,0.103,north-northwest,1.7,No
2017/12/31,05:30,0.341,0.207,0.346,0.324,0.306,0.171,0.102,north-northwest,1.9,No
2017/12/31,05:40,0.341,0.204,0.347,0.323,0.306,0.171,0.102,north-northwest,1.3,No
2017/12/31,05:50,0.340,0.207,0.345,0.324,0.305,0.170,0.102,northwest,1.0,No
2017/12/31,06:00,0.341,0.206,0.346,0.324,0.304,0.171,0.103,northwest,0.7,No
2017/12/31,06:10,0.343,0.207,0.347,0.323,0.306,0.169,0.102,-,CALM,No
2017/12/31,06:20,0.341,0.208,0.346,0.324,0.304,0.171,0.101,north,0.8,No
2017/12/31,06:30,0.341,0.207,0.345,0.325,0.305,0.171,0.101,-,CALM,No
2017/12/31,06:40,0.342,0.206,0.347,0.325,0.306,0.170,0.102,-,CALM,No
2017/12/31,06:50,0.340,0.206,0.345,0.323,0.306,0.171,0.102,northwest,0.6,No
2017/12/31,07:00,0.342,0.207,0.345,0.324,0.305,0.171,0.102,north,1.4,No
2017/12/31,07:10,0.342,0.206,0.346,0.323,0.305,0.171,0.102,northwest,0.6,No
2017/12/31,07:20,0.342,0.207,0.345,0.324,0.305,0.171,0.102,northwest,0.9,No
2017/12/31,07:30,0.341,0.207,0.346,0.323,0.306,0.170,0.101,northwest,1.0,No
2017/12/31,07:40,0.341,0.207,0.348,0.323,0.306,0.171,0.102,-,CALM,No
2017/12/31,07:50,0.342,0.206,0.346,0.324,0.304,0.170,0.103,north-northwest,0.8,No
2017/12/31,08:00,0.341,0.206,0.346,0.324,0.306,0.171,0.102,north-northwest,0.9,No
2017/12/31,08:10,0.341,0.206,0.346,0.322,0.306,0.171,0.102,-,CALM,No
2017/12/31,08:20,0.342,0.206,0.346,0.324,0.305,0.171,0.101,north-northwest,0.6,No
2017/12/31,08:30,0.342,0.206,0.345,0.323,0.305,0.170,0.102,-,CALM,No
2017/12/31,08:40,0.342,0.206,0.344,0.323,0.306,0.170,0.102,-,CALM,No
2017/12/31,08:50,0.341,0.206,0.345,0.323,0.305,0.170,0.101,-,CALM,No
2017/12/31,09:00,0.340,0.207,0.347,0.325,0.305,0.170,0.102,-,CALM,No
2017/12/31,09:10,0.340,0.206,0.346,0.323,0.305,0.171,0.103,-,CALM,No
2017/12/31,09:20,0.341,0.207,0.346,0.322,0.306,0.170,0.102,west,0.6,No
2017/12/31,09:30,0.342,0.206,0.346,0.323,0.305,0.171,0.103,southwest,0.6,No
2017/12/31,09:40,0.341,0.206,0.345,0.323,0.304,0.170,0.103,west,0.6,No
2017/12/31,09:50,0.340,0.206,0.345,0.323,0.305,0.170,0.102,west-southwest,1.0,No
2017/12/31,10:00,0.340,0.206,0.345,0.323,0.305,0.171,0.103,west,1.0,No
2017/12/31,10:10,0.341,0.206,0.344,0.323,0.305,0.170,0.102,-,CALM,No
2017/12/31,10:20,0.341,0.207,0.345,0.324,0.305,0.170,0.103,southwest,1.0,No
2017/12/31,10:30,0.341,0.207,0.346,0.324,0.305,0.171,0.102,-,CALM,No
2017/12/31,10:40,0.342,0.206,0.344,0.324,0.305,0.170,0.102,-,CALM,No
2017/12/31,10:50,0.340,0.206,0.345,0.324,0.306,0.171,0.102,south-southeast,1.0,No
2017/12/31,11:00,0.341,0.208,0.345,0.324,0.306,0.172,0.103,south-southeast,1.7,No
2017/12/31,11:10,0.341,0.206,0.346,0.323,0.306,0.171,0.101,southeast,1.4,No
2017/12/31,11:20,0.341,0.208,0.345,0.323,0.307,0.171,0.103,south-southwest,1.1,No
2017/12/31,11:30,0.341,0.207,0.345,0.325,0.305,0.171,0.102,south-southeast,1.0,No
2017/12/31,11:40,0.342,0.206,0.345,0.324,0.307,0.170,0.101,south-southeast,0.8,No
2017/12/31,11:50,0.341,0.207,0.345,0.324,0.307,0.171,0.103,south-southeast,0.7,No
2017/12/31,12:00,0.341,0.207,0.344,0.324,0.305,0.172,0.102,south-southeast,0.7,No
2017/12/31,12:10,0.341,0.207,0.347,0.324,0.307,0.171,0.102,southeast,0.9,No
2017/12/31,12:20,0.341,0.208,0.347,0.323,0.308,0.170,0.102,-,CALM,No
2017/12/31,12:30,0.341,0.207,0.346,0.325,0.306,0.171,0.102,south,1.0,No
2017/12/31,12:40,0.342,0.206,0.346,0.325,0.308,0.171,0.102,south,1.1,No
2017/12/31,12:50,0.342,0.206,0.346,0.323,0.308,0.171,0.102,south,1.0,No
2017/12/31,13:00,0.341,0.207,0.347,0.325,0.305,0.171,0.102,south,1.3,No
2017/12/31,13:10,0.341,0.206,0.345,0.324,0.308,0.171,0.103,south-southeast,0.6,No
2017/12/31,13:20,0.341,0.207,0.347,0.324,0.306,0.171,0.102,south,0.9,No
2017/12/31,13:30,0.341,0.207,0.345,0.324,0.307,0.171,0.102,south-southwest,1.1,No
2017/12/31,13:40,0.341,0.206,0.345,0.325,0.306,0.172,0.101,-,CALM,No
2017/12/31,13:50,0.341,0.208,0.346,0.325,0.307,0.171,0.102,south-southwest,1.2,No
2017/12/31,14:00,0.340,0.207,0.345,0.324,0.306,0.171,0.102,west-southwest,0.8,No
2017/12/31,14:10,0.341,0.206,0.345,0.325,0.308,0.172,0.102,west-southwest,0.8,Yes
2017/12/31,14:20,0.343,0.207,0.347,0.325,0.308,0.171,0.102,west-southwest,0.7,Yes
2017/12/31,14:30,0.342,0.208,0.347,0.324,0.308,0.172,0.103,south-southwest,1.5,Yes
2017/12/31,14:40,0.343,0.207,0.345,0.324,0.307,0.173,0.102,south-southwest,2.0,Yes
2017/12/31,14:50,0.342,0.208,0.347,0.325,0.308,0.172,0.103,south-southwest,3.6,Yes
2017/12/31,15:00,0.341,0.209,0.349,0.326,0.307,0.173,0.104,southwest,2.7,Yes
2017/12/31,15:10,0.342,0.208,0.347,0.326,0.309,0.173,0.104,west-southwest,2.4,Yes
2017/12/31,15:20,0.343,0.208,0.347,0.327,0.308,0.174,0.104,west-southwest,1.6,Yes
2017/12/31,15:30,0.345,0.209,0.347,0.326,0.308,0.174,0.105,west-southwest,1.0,Yes
2017/12/31,15:40,0.342,0.209,0.347,0.324,0.307,0.173,0.104,west-northwest,0.7,Yes
2017/12/31,15:50,0.343,0.208,0.347,0.325,0.308,0.174,0.103,west-northwest,0.8,No
2017/12/31,16:00,0.342,0.207,0.346,0.324,0.307,0.172,0.102,-,CALM,Yes
2017/12/31,16:10,0.342,0.207,0.346,0.325,0.306,0.172,0.103,west,0.8,Yes
2017/12/31,16:20,0.341,0.208,0.346,0.324,0.306,0.173,0.102,west-southwest,0.7,Yes
2017/12/31,16:30,0.341,0.207,0.344,0.325,0.306,0.172,0.102,west,0.9,Yes
2017/12/31,16:40,0.342,0.208,0.345,0.323,0.306,0.172,0.103,west,1.3,Yes
2017/12/31,16:50,0.339,0.209,0.347,0.323,0.307,0.172,0.103,west,1.2,Yes
2017/12/31,17:00,0.344,0.208,0.347,0.325,0.307,0.172,0.104,west-southwest,1.4,Yes
2017/12/31,17:10,0.342,0.207,0.347,0.325,0.307,0.173,0.104,west,1.6,Yes
2017/12/31,17:20,0.342,0.208,0.346,0.324,0.306,0.173,0.104,west-northwest,1.5,Yes
2017/12/31,17:30,0.342,0.209,0.347,0.324,0.306,0.173,0.104,west-northwest,1.9,Yes
2017/12/31,17:40,0.342,0.208,0.347,0.326,0.307,0.173,0.104,west,1.2,Yes
2017/12/31,17:50,0.342,0.208,0.346,0.325,0.306,0.173,0.104,west-northwest,1.6,No
2017/12/31,18:00,0.340,0.208,0.346,0.324,0.306,0.173,0.104,west,1.6,No
2017/12/31,18:10,0.341,0.209,0.346,0.324,0.307,0.172,0.105,west-northwest,1.7,No
2017/12/31,18:20,0.341,0.207,0.346,0.323,0.307,0.172,0.103,west-northwest,1.4,No
2017/12/31,18:30,0.342,0.207,0.344,0.325,0.305,0.172,0.103,north-northwest,0.6,No
2017/12/31,18:40,0.340,0.208,0.345,0.322,0.306,0.171,0.102,north-northwest,0.7,No
2017/12/31,18:50,0.340,0.207,0.346,0.322,0.305,0.171,0.102,north,0.7,No
2017/12/31,19:00,0.341,0.206,0.344,0.323,0.305,0.171,0.103,north,1.7,No
2017/12/31,19:10,0.340,0.207,0.345,0.323,0.305,0.170,0.103,north,2.7,No
2017/12/31,19:20,0.339,0.208,0.343,0.323,0.305,0.171,0.102,north,3.4,No
2017/12/31,19:30,0.340,0.207,0.345,0.322,0.305,0.170,0.103,north,3.8,No
2017/12/31,19:40,0.340,0.207,0.344,0.324,0.305,0.171,0.102,north,3.4,No
2017/12/31,19:50,0.340,0.206,0.346,0.323,0.305,0.170,0.102,north,3.4,No
2017/12/31,20:00,0.341,0.207,0.344,0.323,0.304,0.170,0.103,north-northwest,3.5,No
2017/12/31,20:10,0.338,0.207,0.346,0.322,0.303,0.169,0.102,north,3.2,No
2017/12/31,20:20,0.342,0.207,0.344,0.322,0.305,0.170,0.102,north-northwest,2.9,No
2017/12/31,20:30,0.338,0.206,0.343,0.322,0.304,0.170,0.102,north-northwest,3.5,No
2017/12/31,20:40,0.340,0.206,0.343,0.324,0.304,0.170,0.102,north-northwest,3.3,No
2017/12/31,20:50,0.339,0.206,0.344,0.322,0.304,0.170,0.102,north-northwest,3.9,No
2017/12/31,21:00,0.340,0.205,0.344,0.321,0.304,0.170,0.102,north-northwest,3.7,No
2017/12/31,21:10,0.339,0.205,0.343,0.322,0.305,0.170,0.102,north-northwest,3.6,No
2017/12/31,21:20,0.339,0.205,0.343,0.321,0.305,0.171,0.101,north-northwest,3.4,No
2017/12/31,21:30,0.339,0.206,0.343,0.322,0.302,0.170,0.102,north-northwest,3.8,No
2017/12/31,21:40,0.338,0.205,0.344,0.323,0.304,0.169,0.102,northwest,3.6,No
2017/12/31,21:50,0.339,0.206,0.344,0.322,0.304,0.171,0.101,north-northwest,3.8,No
2017/12/31,22:00,0.338,0.206,0.343,0.323,0.304,0.169,0.102,north-northwest,3.6,No
2017/12/31,22:10,0.341,0.206,0.344,0.320,0.304,0.171,0.102,north-northwest,3.7,No
2017/12/31,22:20,0.338,0.205,0.343,0.322,0.303,0.170,0.101,northwest,3.2,No
2017/12/31,22:30,0.339,0.207,0.344,0.322,0.305,0.170,0.102,west-northwest,2.7,No
2017/12/31,22:40,0.341,0.207,0.343,0.323,0.303,0.170,0.102,northwest,2.6,No
2017/12/31,22:50,0.341,0.206,0.345,0.321,0.303,0.169,0.101,northwest,3.0,No
2017/12/31,23:00,0.340,0.205,0.344,0.320,0.304,0.170,0.101,northwest,2.7,No
2017/12/31,23:10,0.338,0.205,0.343,0.320,0.304,0.171,0.102,northwest,1.9,No
2017/12/31,23:20,0.339,0.207,0.342,0.322,0.305,0.169,0.102,west-northwest,1.9,No
2017/12/31,23:30,0.340,0.205,0.343,0.322,0.303,0.169,0.101,northwest,1.7,No
2017/12/31,23:40,0.338,0.205,0.344,0.320,0.305,0.169,0.101,northwest,2.1,No
2017/12/31,23:50,0.339,0.206,0.343,0.321,0.306,0.170,0.101,north-northwest,1.8,No
